[[{"header":{"parameterUnit":"m.s-1","parameterCategory":1,"la1":30.2991,"la2":30.254,"lo1":-89.0895,"lo2":-89.0444,"dy":0.0017,"dx":0.0017,"nx":28,"ny":28,"refTime":"2025-11-23T03:00:00:Z","depth":0,"parameterNumber":2,"parameterNumberName":"U-component_of_WINDS"},"data":[0,0,0,0,0,0,0,0,0,0,0,0,0,0,0,0,0,0,0,0,0,0,0,0,0,0,0,0,0,0,0,0,0,0,0,0,0,0,0,0,0,0,0,0,0,0,0,0,0,0,0,0,0,0,0,0,0,0,0.1318,0.1318,0,0.1375,0.1376,0.1376,0.1429,0.143,0.143,0.1431,0.149,0.1491,0.1492,0,0,0,0,0,0,0,0,0,0,0,0,0,0.1254,0.1255,0.1318,0.1318,0.1319,0.1375,0.1376,0.1376,0.1429,0.143,0.1431,0.1431,0.1489,0.149,0.1492,0,0,0,0,0,0,0,0,0,0,0,0,0,0.1294,0.1255,0.1318,0.1352,0.1356,0.1375,0.1376,0.1377,0.1429,0.143,0.1431,0.1432,0.1489,0.149,0.1492,0.1481,0,0,0.1496,0.1497,0,0,0,0,0,0,0,0,0.1291,0.1296,0.1346,0.135,0.1354,0.1396,0.1375,0.1412,0.1429,0.1401,0.1431,0.1432,0.1458,0.1462,0.147,0.1484,0.1487,0.1496,0.1497,0.1498,0.1498,0,0,0,0,0,0,0,0.1289,0.1294,0.134,0.1347,0.1352,0.1365,0.1371,0.1382,0.1423,0.1404,0.1408,0.1414,0.146,0.1469,0.1472,0.1487,0.1496,0.1498,0.1498,0.1499,0.1495,0.1494,0,0,0,0,0,0,0.128,0.1291,0.1339,0.1342,0.1324,0.1365,0.1373,0.1381,0.1423,0.1431,0.1413,0.1416,0.1466,0.147,0.1474,0.1464,0.1498,0.1499,0.15,0.1496,0.1495,0.1494,0,0,0,0,0,0,0.1279,0.1284,0.1336,0.1318,0.1325,0.1365,0.1375,0.1382,0.1391,0.143,0.1438,0.1414,0.1467,0.1472,0.1479,0.1467,0.15,0.1501,0.1497,0.1496,0.1494,0.1444,0,0,0,0,0,0,0.1277,0.1283,0.128,0.1317,0.1326,0.134,0.1374,0.1382,0.1393,0.1398,0.1434,0.144,0.1468,0.1477,0.148,0.147,0.1502,0.1498,0.1496,0.1495,0.1447,0.1441,0.1436,0,0,0,0,0,0.1274,0.1263,0.1279,0.1285,0.1322,0.1339,0.1344,0.1376,0.1392,0.1389,0.1414,0.1439,0.1468,0.1477,0.1482,0.1471,0.1499,0.1497,0.1495,0.145,0.1442,0.1436,0,0,0,0,0,0,0.1224,0.1269,0.1287,0.1288,0.1309,0.1348,0.1345,0.1368,0.1385,0.1388,0.1427,0.1435,0.1437,0.1455,0.1464,0.1463,0.1487,0.1486,0.1451,0.1445,0.1439,0.1434,0.1503,0,0,0,0,0,0.1212,0.1222,0.1261,0.1258,0.1268,0.1304,0.1313,0.1336,0.1359,0.1368,0.1394,0.1416,0.143,0.1439,0.1454,0.145,0.1459,0.1445,0.144,0.1435,0.1433,0.1432,0.1427,0.1486,0.1487,0.1487,0,0,0.119,0.1216,0.1219,0.1249,0.1268,0.1277,0.1312,0.132,0.1327,0.137,0.1377,0.1397,0.1424,0.1426,0.1428,0.1441,0.1419,0.1433,0.1429,0.1429,0.143,0.1424,0.1419,0.1485,0.1485,0.1486,0,0,0.1152,0.1173,0.1173,0.1191,0.122,0.1244,0.1244,0.1279,0.1294,0.1302,0.1334,0.1343,0.1367,0.1385,0.1397,0.1366,0.139,0.137,0.1341,0.134,0.1335,0.1331,0.1319,0.1315,0.1368,0.1368,0.1368,0,0.112,0.1135,0.117,0.1176,0.1187,0.1227,0.1227,0.1243,0.1275,0.1282,0.1296,0.1326,0.1347,0.1353,0.1346,0.1354,0.1355,0.1366,0.1333,0.1329,0.1326,0.1315,0.1311,0.1365,0.1366,0.1366,0.1366,0,0.1094,0.1104,0.11,0.1129,0.1141,0.1144,0.1179,0.1186,0.1208,0.1231,0.1238,0.1265,0.1286,0.1289,0.1311,0.1298,0.1305,0.1326,0.135,0.1317,0.1307,0.1304,0.1361,0.1362,0.1363,0.1364,0,0,0.1026,0.1074,0.1072,0.1086,0.112,0.1129,0.1133,0.1154,0.1159,0.118,0.1184,0.1203,0.1222,0.1236,0.126,0.1258,0.1231,0.1279,0.128,0.1268,0.1218,0.1202,0.1196,0.1248,0.1247,0.1247,0.1215,0,0.0994,0.1004,0.1035,0.1036,0.1045,0.1083,0.1087,0.1108,0.1129,0.114,0.1164,0.1176,0.1201,0.1209,0.121,0.1234,0.1222,0.1237,0.1252,0.1252,0.1243,0.1192,0.1175,0.1144,0.1212,0.1212,0.1211,0,0.0957,0.0975,0.0977,0.1011,0.1016,0.1019,0.104,0.105,0.1075,0.109,0.1105,0.1132,0.1138,0.1162,0.1171,0.1181,0.1189,0.1202,0.1202,0.1204,0.1229,0.1191,0.1135,0.113,0.1206,0.1206,0.1207,0,0.0906,0.0931,0.0935,0.0946,0.0986,0.0987,0.1003,0.1029,0.1039,0.1058,0.1065,0.1084,0.1094,0.1108,0.1138,0.1153,0.1144,0.117,0.1156,0.1156,0.1152,0.1152,0.1096,0.1159,0.1159,0.1159,0.1159,0,0.0867,0.0866,0.0913,0.0915,0.0915,0.0951,0.0951,0.0971,0.0994,0.1,0.1034,0.104,0.1081,0.1091,0.1115,0.1119,0.1123,0.1136,0.1142,0.1132,0.113,0.1137,0.114,0.1158,0.1158,0.1158,0.1158,0,0.081,0.0841,0.0848,0.0885,0.0894,0.0892,0.0924,0.0928,0.0951,0.0959,0.0963,0.1,0.1013,0.1046,0.1068,0.1084,0.1081,0.1093,0.1073,0.1076,0.1061,0.1061,0.1006,0.1,0.1067,0.1067,0.1066,0,0.0782,0.0782,0.0819,0.0826,0.0841,0.0852,0.0862,0.0898,0.0907,0.0936,0.0936,0.0952,0.0967,0.0987,0.1015,0.1033,0.1045,0.1024,0.1048,0.1037,0.1043,0.1043,0.1042,0.1019,0.1018,0.1017,0.1017,0,0.0729,0.0744,0.0758,0.0777,0.0788,0.0805,0.0824,0.0827,0.0867,0.0876,0.0891,0.0902,0.0925,0.094,0.0962,0.0979,0.1004,0.1009,0.1007,0.0996,0.0984,0.0989,0.1058,0.101,0.1011,0.1011,0.1011,0.1012,0.0685,0.0687,0.0713,0.0727,0.0745,0.0761,0.0766,0.079,0.0803,0.0824,0.0844,0.0856,0.0881,0.0912,0.0928,0.0937,0.095,0.0947,0.0946,0.0944,0.094,0.0983,0.0942,0.0942,0.0942,0.0942,0.0942,0,0.0633,0.0652,0.0664,0.0689,0.07,0.0723,0.0745,0.0752,0.0762,0.0783,0.0797,0.0813,0.0829,0.0858,0.0876,0.0878,0.089,0.0881,0.0881,0.0884,0.0928,0.0927,0.0871,0.0871,0.0871,0.0871,0.0871,0.0871,0.0607,0.0611,0.063,0.0643,0.0662,0.0673,0.0684,0.0699,0.0716,0.0732,0.0745,0.0764,0.0789,0.0809,0.0823,0.0832,0.0836,0.0824,0.0835,0.0875,0.0882,0.0888,0.0888,0.0825,0.0824,0.0791,0.0791,0.0791]},{"header":{"parameterUnit":"m.s-1","parameterCategory":1,"la1":30.2991,"la2":30.254,"lo1":-89.0895,"lo2":-89.0444,"dy":0.0017,"dx":0.0017,"nx":28,"ny":28,"refTime":"2025-11-23T03:00:00:Z","depth":0,"parameterNumber":3,"parameterNumberName":"V-component_of_WINDS"},"data":[0,0,0,0,0,0,0,0,0,0,0,0,0,0,0,0,0,0,0,0,0,0,0,0,0,0,0,0,0,0,0,0,0,0,0,0,0,0,0,0,0,0,0,0,0,0,0,0,0,0,0,0,0,0,0,0,0,0,1.0446,1.0446,0,1.0418,1.0418,1.0418,1.0386,1.0385,1.0385,1.0384,1.0354,1.0354,1.0353,0,0,0,0,0,0,0,0,0,0,0,0,0,1.0467,1.0467,1.0446,1.0446,1.0445,1.0418,1.0418,1.0418,1.0386,1.0385,1.0385,1.0384,1.0354,1.0354,1.0353,0,0,0,0,0,0,0,0,0,0,0,0,0,1.0451,1.0467,1.0446,1.0426,1.0424,1.0418,1.0418,1.0417,1.0386,1.0385,1.0385,1.0384,1.0354,1.0354,1.0353,1.0364,0,0,1.0352,1.0351,0,0,0,0,0,0,0,0,1.0452,1.045,1.0429,1.0428,1.0425,1.0405,1.0414,1.04,1.0386,1.04,1.0384,1.0384,1.0371,1.0369,1.0366,1.0363,1.0362,1.0352,1.0351,1.0351,1.0351,0,0,0,0,0,0,0,1.0453,1.0451,1.0435,1.0429,1.0427,1.0417,1.0414,1.0411,1.039,1.0399,1.0397,1.0394,1.037,1.0366,1.0365,1.0361,1.0352,1.0351,1.0351,1.0351,1.0362,1.0362,0,0,0,0,0,0,1.0457,1.0452,1.0436,1.0434,1.0437,1.0418,1.0414,1.0412,1.039,1.0386,1.0395,1.0393,1.0368,1.0366,1.0364,1.0372,1.0351,1.0351,1.035,1.0361,1.0362,1.0362,0,0,0,0,0,0,1.0458,1.0456,1.0437,1.0442,1.0439,1.0418,1.0416,1.0412,1.0408,1.0387,1.0383,1.0395,1.0367,1.0364,1.0364,1.0371,1.035,1.035,1.036,1.0361,1.0362,1.0391,0,0,0,0,0,0,1.0459,1.0457,1.0462,1.0443,1.0439,1.0439,1.0417,1.0412,1.0407,1.0405,1.0386,1.0382,1.0366,1.0365,1.0363,1.037,1.0349,1.036,1.0361,1.0362,1.039,1.0393,1.0396,0,0,0,0,0,1.046,1.0471,1.0462,1.046,1.0445,1.0439,1.0437,1.0419,1.0408,1.0412,1.0398,1.0383,1.0371,1.0365,1.0363,1.037,1.0359,1.036,1.0362,1.0388,1.0393,1.0396,0,0,0,0,0,0,1.0492,1.0469,1.0458,1.0464,1.0454,1.0434,1.0438,1.0425,1.0417,1.0414,1.0392,1.0388,1.0389,1.0379,1.0373,1.0377,1.0362,1.0363,1.0383,1.0387,1.039,1.0392,1.0349,0,0,0,0,0,1.0499,1.0498,1.0477,1.0484,1.048,1.046,1.0457,1.0444,1.0432,1.0427,1.0413,1.0401,1.0394,1.039,1.0383,1.0388,1.0382,1.0392,1.0395,1.0398,1.0399,1.0397,1.0401,1.0367,1.0367,1.0367,0,0,1.0515,1.0503,1.0503,1.049,1.0481,1.0478,1.0457,1.0455,1.0452,1.0427,1.0424,1.0414,1.0399,1.04,1.04,1.0392,1.0406,1.04,1.0402,1.0401,1.0399,1.0402,1.0405,1.0368,1.0368,1.0368,0,0,1.0542,1.0534,1.0537,1.0528,1.0514,1.05,1.0501,1.0482,1.0474,1.0472,1.0452,1.0447,1.0437,1.0426,1.0419,1.044,1.0424,1.0438,1.0455,1.0454,1.0457,1.0459,1.0464,1.0466,1.0439,1.0439,1.0439,0,1.0564,1.0559,1.0541,1.054,1.0534,1.0511,1.0513,1.0505,1.0488,1.0484,1.0476,1.046,1.0449,1.0446,1.045,1.0447,1.0445,1.044,1.0458,1.046,1.0462,1.0466,1.0468,1.0441,1.0441,1.044,1.044,0,1.0585,1.0582,1.0587,1.0571,1.0566,1.0567,1.0546,1.0543,1.053,1.0517,1.0513,1.0498,1.0486,1.0485,1.0472,1.0479,1.0474,1.0462,1.0447,1.0467,1.047,1.0472,1.0443,1.0442,1.0442,1.0442,0,0,1.0631,1.0605,1.0606,1.0598,1.058,1.0576,1.0575,1.0563,1.056,1.0549,1.0545,1.0536,1.0524,1.0516,1.0502,1.0502,1.0515,1.0489,1.0488,1.0493,1.0519,1.0527,1.0529,1.0506,1.0506,1.0506,1.0519,0,1.0653,1.065,1.0632,1.0634,1.0629,1.0606,1.0605,1.0592,1.0579,1.0572,1.0558,1.0551,1.0537,1.0531,1.053,1.0514,1.052,1.0513,1.05,1.05,1.0503,1.0532,1.0541,1.0554,1.0521,1.0521,1.0521,0,1.0679,1.0669,1.067,1.0649,1.0646,1.0645,1.0632,1.0627,1.0611,1.0601,1.0592,1.0576,1.0571,1.0557,1.0549,1.0544,1.0538,1.0529,1.0529,1.0526,1.0511,1.0527,1.0558,1.056,1.0524,1.0524,1.0524,0,1.0709,1.0696,1.0694,1.0688,1.0665,1.0664,1.0654,1.0638,1.0632,1.062,1.0615,1.0602,1.0595,1.0585,1.0565,1.0558,1.0558,1.0543,1.0548,1.0548,1.0548,1.0548,1.0576,1.0547,1.0547,1.0547,1.0547,0,1.0734,1.0735,1.0708,1.0706,1.0705,1.0685,1.0684,1.0672,1.0657,1.0652,1.0632,1.0627,1.0601,1.0593,1.0577,1.0571,1.0568,1.0559,1.0555,1.056,1.0561,1.0554,1.0552,1.0547,1.0547,1.0547,1.0547,0,1.0768,1.075,1.0746,1.0724,1.0718,1.0718,1.0699,1.0695,1.0681,1.0674,1.0671,1.0648,1.0637,1.0616,1.06,1.0589,1.0585,1.0579,1.059,1.0587,1.0592,1.0591,1.0616,1.0617,1.0589,1.0589,1.059,0,1.0784,1.0784,1.0762,1.0757,1.0748,1.074,1.0733,1.0712,1.0705,1.0686,1.0685,1.0672,1.0661,1.0643,1.0624,1.061,1.0602,1.0612,1.06,1.0604,1.06,1.0599,1.0598,1.0614,1.0614,1.0615,1.0615,0,1.0814,1.0805,1.0796,1.0783,1.0776,1.0765,1.0752,1.0749,1.0725,1.0718,1.0706,1.0697,1.0679,1.0666,1.0649,1.0637,1.0621,1.0619,1.0619,1.0624,1.063,1.0625,1.0596,1.0618,1.0618,1.0618,1.0618,1.0617,1.0838,1.0836,1.0819,1.0809,1.0798,1.0787,1.0782,1.0767,1.0757,1.0741,1.0729,1.0718,1.07,1.0676,1.0664,1.0654,1.0647,1.0647,1.0647,1.0647,1.0648,1.0633,1.0651,1.0651,1.0651,1.0651,1.0651,0,1.0864,1.0853,1.0844,1.0827,1.0819,1.0806,1.0791,1.0785,1.0775,1.0761,1.0749,1.0735,1.0721,1.0701,1.0685,1.0681,1.0673,1.0677,1.0677,1.0674,1.0657,1.0657,1.0684,1.0684,1.0684,1.0684,1.0684,1.0684,1.0877,1.0872,1.0861,1.0849,1.0837,1.0827,1.0819,1.0808,1.0795,1.078,1.0769,1.0756,1.0738,1.0721,1.0708,1.0702,1.0696,1.0702,1.0694,1.0678,1.0675,1.0672,1.0673,1.0702,1.0702,1.0712,1.0712,1.0712]}]]